| time (UTC) | temp F | wind direction | speed MPH | gust MPH | rain 1hr in | rain 24hr in | rain mn in | humidity % | barometer mb |
| 20260905024203 | 80 | 120 | 0.0 | 0.0 | 0.00 | 0.05 | 0.05 | 78 | 1013.7 |
| 20260905023703 | 80 | 120 | 0.0 | 0.0 | 0.00 | 0.05 | 0.05 | 78 | 1013.4 |
| 20260905023203 | 80 | 120 | 0.0 | 0.0 | 0.00 | 0.05 | 0.05 | 78 | 1013.3 |
| 20260905022703 | 80 | 120 | 0.0 | 0.0 | 0.00 | 0.05 | 0.05 | 78 | 1013.3 |
| 20260905022204 | 80 | 120 | 0.0 | 0.0 | 0.00 | 0.05 | 0.05 | 78 | 1013.3 |
| 20260905021704 | 81 | 120 | 0.0 | 0.0 | 0.00 | 0.05 | 0.05 | 77 | 1013.3 |
| 20260905021203 | 81 | 120 | 0.0 | 0.0 | 0.00 | 0.05 | 0.05 | 76 | 1013.3 |
| 20260905020703 | 81 | 120 | 0.0 | 0.0 | 0.00 | 0.05 | 0.05 | 76 | 1013.2 |
| 20260905020204 | 81 | 120 | 0.0 | 0.0 | 0.00 | 0.05 | 0.05 | 77 | 1013.1 |
| 20260905015704 | 82 | 120 | 0.0 | 0.0 | 0.00 | 0.05 | 0.05 | 78 | 1013.1 |
| 20260905015204 | 82 | 120 | 0.0 | 0.0 | 0.00 | 0.05 | 0.05 | 79 | 1013.1 |
| 20260905014703 | 82 | 120 | 0.0 | 0.0 | 0.00 | 0.05 | 0.05 | 80 | 1013.1 |
| 20260905014204 | 82 | 120 | 0.0 | 0.0 | 0.00 | 0.05 | 0.05 | 80 | 1013.1 |
| 20260905013704 | 82 | 120 | 0.0 | 0.0 | 0.00 | 0.05 | 0.05 | 81 | 1013.0 |
| 20260905013204 | 82 | 120 | 0.0 | 0.0 | 0.00 | 0.05 | 0.05 | 81 | 1013.0 |
| 20260905012703 | 82 | 120 | 0.0 | 0.0 | 0.00 | 0.05 | 0.05 | 80 | 1012.9 |
| 20260905012205 | 82 | 120 | 0.0 | 0.0 | 0.00 | 0.05 | 0.05 | 80 | 1012.9 |
| 20260905011704 | 82 | 120 | 0.0 | 0.0 | 0.00 | 0.05 | 0.05 | 80 | 1012.7 |
| 20260905011204 | 82 | 120 | 0.0 | 0.0 | 0.00 | 0.05 | 0.05 | 80 | 1012.6 |
| 20260905010704 | 82 | 120 | 0.0 | 0.0 | 0.00 | 0.05 | 0.05 | 79 | 1012.4 |
| 20260905010205 | 83 | 120 | 0.0 | 0.0 | 0.00 | 0.05 | 0.05 | 78 | 1012.3 |
| 20260905005704 | 83 | 120 | 0.0 | 0.0 | 0.00 | 0.05 | 0.05 | 77 | 1012.1 |
| 20260905004704 | 84 | 120 | 0.0 | 0.0 | 0.00 | 0.05 | 0.05 | 74 | 1011.8 |
| 20260905004203 | 84 | 120 | 0.0 | 0.0 | 0.00 | 0.05 | 0.05 | 72 | 1011.6 |
| 20260905003204 | 84 | 120 | 0.0 | 0.0 | 0.00 | 0.05 | 0.05 | 71 | 1011.7 |
| 20260905002704 | 84 | 120 | 0.0 | 0.0 | 0.00 | 0.05 | 0.05 | 71 | 1011.8 |
| 20260905002203 | 85 | 120 | 0.0 | 0.0 | 0.00 | 0.05 | 0.05 | 71 | 1011.8 |
| 20260905001704 | 85 | 120 | 0.0 | 0.0 | 0.00 | 0.05 | 0.05 | 70 | 1011.8 |
| 20260905001204 | 85 | 120 | 0.0 | 0.0 | 0.00 | 0.05 | 0.05 | 69 | 1011.8 |
| 20260905000703 | 85 | 120 | 0.0 | 0.0 | 0.00 | 0.05 | 0.05 | 69 | 1011.7 |
| 20260905000204 | 86 | 120 | 0.0 | 0.0 | 0.00 | 0.05 | 0.05 | 68 | 1011.6 |
| 20260904235703 | 86 | 120 | 0.0 | 0.0 | 0.00 | 0.05 | 0.05 | 67 | 1011.7 |
| 20260904235204 | 86 | 120 | 0.0 | 0.0 | 0.00 | 0.05 | 0.05 | 66 | 1011.5 |
| 20260904234205 | 86 | 120 | 0.0 | 0.0 | 0.00 | 0.05 | 0.05 | 66 | 1010.9 |
| 20260904233704 | 86 | 120 | 0.0 | 0.0 | 0.00 | 0.05 | 0.05 | 66 | 1011.5 |
| 20260904233203 | 86 | 120 | 0.0 | 0.0 | 0.00 | 0.05 | 0.05 | 65 | 1011.3 |
| 20260904232703 | 87 | 120 | 0.0 | 0.0 | 0.00 | 0.05 | 0.05 | 65 | 1011.4 |
| 20260904232203 | 87 | 120 | 0.0 | 0.0 | 0.00 | 0.05 | 0.05 | 64 | 1011.4 |
| 20260904231704 | 87 | 120 | 0.0 | 0.0 | 0.00 | 0.05 | 0.05 | 63 | 1011.4 |
| 20260904231205 | 87 | 120 | 0.0 | 0.0 | 0.00 | 0.05 | 0.05 | 63 | 1011.4 |
| 20260904230704 | 88 | 120 | 0.0 | 0.0 | 0.00 | 0.05 | 0.05 | 63 | 1011.4 |
| 20260904230203 | 88 | 120 | 0.0 | 0.0 | 0.00 | 0.05 | 0.05 | 62 | 1011.4 |
| 20260904225704 | 88 | 120 | 0.0 | 0.0 | 0.00 | 0.05 | 0.05 | 61 | 1011.4 |
| 20260904225204 | 88 | 120 | 0.0 | 0.0 | 0.00 | 0.05 | 0.05 | 63 | 1011.6 |
| 20260904224703 | 88 | 120 | 0.0 | 0.0 | 0.00 | 0.05 | 0.05 | 62 | 1011.7 |
| 20260904224204 | 88 | 120 | 0.0 | 0.0 | 0.00 | 0.05 | 0.05 | 62 | 1011.8 |
| 20260904223704 | 88 | 120 | 0.0 | 0.0 | 0.00 | 0.05 | 0.05 | 61 | 1011.8 |
| 20260904223203 | 89 | 120 | 0.0 | 0.0 | 0.00 | 0.05 | 0.05 | 60 | 1011.8 |
| 20260904222704 | 89 | 120 | 0.0 | 0.0 | 0.00 | 0.05 | 0.05 | 60 | 1011.7 |
| 20260904222203 | 89 | 120 | 0.0 | 0.0 | 0.00 | 0.05 | 0.05 | 58 | 1011.4 |
| 20260904221704 | 89 | 120 | 0.0 | 0.0 | 0.00 | 0.05 | 0.05 | 58 | 1011.8 |
| 20260904220704 | 89 | 120 | 0.0 | 0.0 | 0.00 | 0.05 | 0.05 | 58 | 1011.7 |
| 20260904220204 | 90 | 120 | 0.0 | 0.0 | 0.00 | 0.05 | 0.05 | 59 | 1011.7 |
| 20260904215704 | 90 | 120 | 0.0 | 0.0 | 0.00 | 0.05 | 0.05 | 56 | 1011.7 |
| 20260904215204 | 90 | 120 | 0.0 | 0.0 | 0.00 | 0.05 | 0.05 | 56 | 1011.6 |
| 20260904214704 | 90 | 120 | 0.0 | 0.0 | 0.00 | 0.05 | 0.05 | 58 | 1011.4 |
| 20260904214204 | 90 | 120 | 0.0 | 0.0 | 0.00 | 0.05 | 0.05 | 57 | 1011.7 |
| 20260904213704 | 90 | 120 | 0.0 | 0.0 | 0.00 | 0.05 | 0.05 | 55 | 1011.4 |
| 20260904213204 | 90 | 120 | 0.0 | 0.0 | 0.00 | 0.05 | 0.05 | 55 | 1011.6 |
| 20260904212703 | 91 | 120 | 0.0 | 0.0 | 0.00 | 0.05 | 0.05 | 55 | 1011.5 |
| 20260904212204 | 91 | 120 | 0.0 | 0.0 | 0.00 | 0.05 | 0.05 | 55 | 1011.6 |
| 20260904211703 | 91 | 120 | 0.0 | 0.0 | 0.00 | 0.05 | 0.05 | 55 | 1011.5 |
| 20260904211203 | 91 | 120 | 0.0 | 0.0 | 0.00 | 0.05 | 0.05 | 55 | 1011.5 |
| 20260904210703 | 91 | 120 | 0.0 | 0.0 | 0.00 | 0.05 | 0.05 | 56 | 1011.5 |
| 20260904205704 | 91 | 120 | 0.0 | 0.0 | 0.00 | 0.05 | 0.05 | 57 | 1011.5 |
| 20260904205203 | 91 | 120 | 0.0 | 0.0 | 0.00 | 0.05 | 0.05 | 56 | 1011.5 |
| 20260904204703 | 91 | 120 | 0.0 | 0.0 | 0.00 | 0.05 | 0.05 | 57 | 1011.5 |
| 20260904203703 | 91 | 120 | 0.0 | 0.0 | 0.00 | 0.05 | 0.05 | 53 | 1011.7 |
| 20260904203204 | 91 | 120 | 0.0 | 0.0 | 0.00 | 0.05 | 0.05 | 54 | 1011.7 |
| 20260904202703 | 91 | 120 | 0.0 | 0.0 | 0.00 | 0.05 | 0.05 | 55 | 1011.7 |
| 20260904201703 | 91 | 120 | 0.0 | 0.0 | 0.00 | 0.05 | 0.05 | 54 | 1012.0 |
| 20260904201205 | 90 | 120 | 0.0 | 0.0 | 0.00 | 0.05 | 0.05 | 53 | 1012.0 |
| 20260904200703 | 90 | 120 | 0.0 | 0.0 | 0.00 | 0.05 | 0.05 | 54 | 1012.1 |
| 20260904200204 | 90 | 120 | 0.0 | 0.0 | 0.00 | 0.05 | 0.05 | 56 | 1012.1 |
| 20260904195703 | 90 | 120 | 0.0 | 0.0 | 0.00 | 0.05 | 0.05 | 56 | 1012.2 |
| 20260904194703 | 89 | 120 | 0.0 | 0.0 | 0.00 | 0.05 | 0.05 | 57 | 1012.5 |
| 20260904194204 | 89 | 120 | 0.0 | 0.0 | 0.00 | 0.05 | 0.05 | 56 | 1012.6 |
| 20260904193704 | 89 | 120 | 0.0 | 0.0 | 0.00 | 0.05 | 0.05 | 57 | 1012.7 |
| 20260904193204 | 89 | 120 | 0.0 | 0.0 | 0.00 | 0.05 | 0.05 | 56 | 1012.7 |
| 20260904192703 | 89 | 120 | 0.0 | 0.0 | 0.00 | 0.05 | 0.05 | 59 | 1012.8 |
| 20260904191704 | 88 | 120 | 0.0 | 0.0 | 0.00 | 0.05 | 0.05 | 60 | 1013.0 |
| 20260904191204 | 87 | 120 | 0.0 | 0.0 | 0.00 | 0.05 | 0.05 | 60 | 1013.1 |
| 20260904190703 | 87 | 120 | 0.0 | 0.0 | 0.00 | 0.05 | 0.05 | 59 | 1013.2 |
| 20260904190204 | 87 | 120 | 0.0 | 0.0 | 0.00 | 0.05 | 0.05 | 59 | 1013.4 |
| 20260904185703 | 87 | 120 | 0.0 | 0.0 | 0.00 | 0.05 | 0.05 | 60 | 1013.5 |
| 20260904185204 | 86 | 120 | 0.0 | 0.0 | 0.00 | 0.05 | 0.05 | 60 | 1013.5 |
| 20260904184703 | 86 | 120 | 0.0 | 0.0 | 0.00 | 0.05 | 0.05 | 61 | 1013.5 |
| 20260904184204 | 86 | 120 | 0.0 | 0.0 | 0.00 | 0.05 | 0.05 | 62 | 1013.6 |
| 20260904183203 | 85 | 120 | 0.0 | 0.0 | 0.00 | 0.05 | 0.05 | 63 | 1013.8 |
| 20260904182704 | 84 | 120 | 0.0 | 0.0 | 0.00 | 0.05 | 0.05 | 64 | 1013.9 |
| 20260904182204 | 84 | 120 | 0.0 | 0.0 | 0.00 | 0.05 | 0.05 | 64 | 1013.9 |
| 20260904181703 | 83 | 120 | 0.0 | 0.0 | 0.00 | 0.05 | 0.05 | 66 | 1014.0 |
| 20260904181203 | 82 | 120 | 0.0 | 0.0 | 0.00 | 0.05 | 0.05 | 67 | 1014.1 |
| 20260904180703 | 81 | 120 | 0.0 | 0.0 | 0.00 | 0.05 | 0.05 | 71 | 1014.0 |
| 20260904180203 | 81 | 120 | 0.0 | 0.0 | 0.00 | 0.05 | 0.05 | 72 | 1013.9 |
| 20260904175704 | 80 | 120 | 0.0 | 0.0 | 0.04 | 0.05 | 0.05 | 73 | 1013.8 |
| 20260904175204 | 80 | 120 | 0.0 | 0.0 | 0.04 | 0.05 | 0.05 | 75 | 1013.8 |
| 20260904174703 | 79 | 120 | 0.0 | 0.0 | 0.05 | 0.05 | 0.05 | 74 | 1013.8 |
| 20260904174204 | 79 | 120 | 0.0 | 0.0 | 0.05 | 0.05 | 0.05 | 77 | 1013.9 |
| 20260904173704 | 79 | 120 | 0.0 | 0.0 | 0.05 | 0.05 | 0.05 | 81 | 1013.9 |
| 20260904173203 | 77 | 120 | 0.0 | 0.0 | 0.05 | 0.05 | 0.05 | 84 | 1014.1 |
| 20260904172704 | 77 | 120 | 0.0 | 0.0 | 0.05 | 0.05 | 0.05 | 84 | 1014.4 |
| 20260904172207 | 78 | 120 | 0.0 | 0.0 | 0.05 | 0.05 | 0.05 | 87 | 1014.6 |
| 20260904171204 | 77 | 120 | 0.0 | 0.0 | 0.05 | 0.05 | 0.05 | 90 | 1015.2 |
| 20260904170703 | 76 | 120 | 0.0 | 0.0 | 0.05 | 0.05 | 0.05 | 89 | 1015.5 |
| 20260904170203 | 77 | 120 | 0.0 | 0.0 | 0.05 | 0.05 | 0.05 | 86 | 1016.0 |
| 20260904165704 | 77 | 120 | 0.0 | 0.0 | 0.01 | 0.01 | 0.01 | 83 | 1016.4 |
| 20260904165204 | 78 | 120 | 0.0 | 0.0 | 0.01 | 0.01 | 0.01 | 80 | 1016.7 |
| 20260904164204 | 78 | 120 | 0.0 | 0.0 | 0.00 | 0.00 | 0.00 | 80 | 1016.7 |
| 20260904163703 | 78 | 120 | 0.0 | 0.0 | 0.00 | 0.00 | 0.00 | 79 | 1016.7 |
| 20260904162704 | 78 | 120 | 0.0 | 0.0 | 0.00 | 0.00 | 0.00 | 78 | 1016.2 |
| 20260904162203 | 77 | 120 | 0.0 | 0.0 | 0.00 | 0.00 | 0.00 | 78 | 1016.0 |
| 20260904161204 | 77 | 120 | 0.0 | 0.0 | 0.00 | 0.00 | 0.00 | 81 | 1016.1 |
| 20260904160703 | 77 | 120 | 0.0 | 0.0 | 0.00 | 0.00 | 0.00 | 83 | 1016.3 |
| 20260904160204 | 76 | 120 | 0.0 | 0.0 | 0.00 | 0.00 | 0.00 | 82 | 1016.2 |
| 20260904153703 | 79 | 120 | 0.0 | 0.0 | 0.00 | 0.06 | 0.00 | 76 | 1016.3 |
| 20260904153203 | 79 | 120 | 0.0 | 0.0 | 0.00 | 0.08 | 0.00 | 80 | 1016.2 |
| 20260904152704 | 78 | 120 | 0.0 | 0.0 | 0.00 | 0.09 | 0.00 | 80 | 1016.2 |
| 20260904151703 | 79 | 120 | 0.0 | 0.0 | 0.00 | 0.09 | 0.00 | 78 | 1016.2 |
| 20260904151204 | 79 | 120 | 0.0 | 0.0 | 0.00 | 0.09 | 0.00 | 78 | 1016.2 |
| 20260904150704 | 80 | 120 | 0.0 | 0.0 | 0.00 | 0.09 | 0.00 | 77 | 1016.3 |
| 20260904145704 | 80 | 120 | 0.0 | 0.0 | 0.00 | 0.09 | 0.00 | 76 | 1016.1 |
| 20260904145204 | 80 | 120 | 0.0 | 0.0 | 0.00 | 0.09 | 0.00 | 76 | 1015.8 |
| 20260904144704 | 80 | 120 | 0.0 | 0.0 | 0.00 | 0.09 | 0.00 | 78 | 1015.1 |
| 20260904144204 | 80 | 120 | 0.0 | 0.0 | 0.00 | 0.09 | 0.00 | 76 | 1015.0 |
| 20260904143703 | 80 | 120 | 0.0 | 0.0 | 0.00 | 0.09 | 0.00 | 80 | 1015.1 |
| 20260904143204 | 79 | 120 | 0.0 | 0.0 | 0.00 | 0.09 | 0.00 | 78 | 1015.1 |
| 20260904142704 | 79 | 120 | 0.0 | 0.0 | 0.00 | 0.09 | 0.00 | 81 | 1015.0 |
| 20260904142204 | 78 | 120 | 0.0 | 0.0 | 0.00 | 0.09 | 0.00 | 80 | 1014.9 |
| 20260904141204 | 77 | 120 | 0.0 | 0.0 | 0.00 | 0.09 | 0.00 | 83 | 1014.9 |
| 20260904140704 | 77 | 120 | 0.0 | 0.0 | 0.00 | 0.09 | 0.00 | 85 | 1015.0 |
| 20260904140203 | 77 | 120 | 0.0 | 0.0 | 0.00 | 0.09 | 0.00 | 84 | 1015.1 |
| 20260904135204 | 77 | 120 | 0.0 | 0.0 | 0.00 | 0.09 | 0.00 | 84 | 1015.0 |
| 20260904134704 | 77 | 120 | 0.0 | 0.0 | 0.00 | 0.09 | 0.00 | 84 | 1014.9 |
| 20260904134204 | 77 | 120 | 0.0 | 0.0 | 0.00 | 0.09 | 0.00 | 84 | 1014.9 |
| 20260904133703 | 77 | 120 | 0.0 | 0.0 | 0.00 | 0.09 | 0.00 | 85 | 1014.9 |
| 20260904133203 | 77 | 120 | 0.0 | 0.0 | 0.00 | 0.09 | 0.00 | 86 | 1014.9 |
| 20260904131703 | 76 | 120 | 0.0 | 0.0 | 0.00 | 0.09 | 0.00 | 86 | 1014.9 |
| 20260904131203 | 76 | 120 | 0.0 | 0.0 | 0.00 | 0.09 | 0.00 | 87 | 1014.7 |
| 20260904130704 | 76 | 120 | 0.0 | 0.0 | 0.00 | 0.09 | 0.00 | 87 | 1014.7 |
| 20260904130204 | 76 | 120 | 0.0 | 0.0 | 0.00 | 0.09 | 0.00 | 87 | 1014.5 |
| 20260904125704 | 75 | 120 | 0.0 | 0.0 | 0.00 | 0.09 | 0.00 | 87 | 1014.3 |
| 20260904125204 | 75 | 120 | 0.0 | 0.0 | 0.00 | 0.09 | 0.00 | 88 | 1014.2 |
| 20260904124703 | 75 | 120 | 0.0 | 0.0 | 0.00 | 0.09 | 0.00 | 87 | 1014.3 |
| 20260904124203 | 75 | 120 | 0.0 | 0.0 | 0.00 | 0.09 | 0.00 | 88 | 1014.2 |
| 20260904123203 | 75 | 120 | 0.0 | 0.0 | 0.00 | 0.09 | 0.00 | 89 | 1014.0 |
| 20260904122703 | 75 | 120 | 0.0 | 0.0 | 0.00 | 0.09 | 0.00 | 90 | 1014.0 |
| 20260904122204 | 75 | 120 | 0.0 | 0.0 | 0.00 | 0.09 | 0.00 | 89 | 1013.9 |
| 20260904121703 | 75 | 120 | 0.0 | 0.0 | 0.00 | 0.09 | 0.00 | 91 | 1013.9 |
| 20260904121203 | 75 | 120 | 0.0 | 0.0 | 0.00 | 0.09 | 0.00 | 92 | 1013.7 |
| 20260904120703 | 75 | 120 | 0.0 | 0.0 | 0.00 | 0.09 | 0.00 | 92 | 1013.5 |
| 20260904115703 | 75 | 120 | 0.0 | 0.0 | 0.00 | 0.09 | 0.00 | 92 | 1013.3 |
| 20260904115203 | 75 | 120 | 0.0 | 0.0 | 0.00 | 0.09 | 0.00 | 92 | 1013.2 |
| 20260904113703 | 75 | 120 | 0.0 | 0.0 | 0.00 | 0.09 | 0.00 | 93 | 1013.1 |
| 20260904113203 | 75 | 120 | 0.0 | 0.0 | 0.00 | 0.09 | 0.00 | 93 | 1013.0 |
| 20260904112704 | 75 | 120 | 0.0 | 0.0 | 0.00 | 0.09 | 0.00 | 92 | 1012.9 |
| 20260904112203 | 75 | 120 | 0.0 | 0.0 | 0.00 | 0.09 | 0.00 | 92 | 1012.6 |
| 20260904111703 | 75 | 120 | 0.0 | 0.0 | 0.00 | 0.09 | 0.00 | 92 | 1012.5 |
| 20260904111203 | 75 | 120 | 0.0 | 0.0 | 0.00 | 0.09 | 0.00 | 92 | 1012.3 |
| 20260904110704 | 75 | 120 | 0.0 | 0.0 | 0.00 | 0.09 | 0.00 | 92 | 1012.3 |
| 20260904110203 | 75 | 120 | 0.0 | 0.0 | 0.00 | 0.09 | 0.00 | 92 | 1012.3 |
| 20260904105203 | 75 | 120 | 0.0 | 0.0 | 0.00 | 0.09 | 0.00 | 92 | 1012.3 |
| 20260904104703 | 75 | 120 | 0.0 | 0.0 | 0.00 | 0.09 | 0.00 | 91 | 1012.3 |
| 20260904104203 | 76 | 120 | 0.0 | 0.0 | 0.00 | 0.09 | 0.00 | 91 | 1012.3 |
| 20260904103703 | 76 | 120 | 0.0 | 0.0 | 0.00 | 0.09 | 0.00 | 91 | 1012.3 |
| 20260904103204 | 76 | 120 | 0.0 | 0.0 | 0.00 | 0.09 | 0.00 | 91 | 1012.3 |
| 20260904101703 | 76 | 120 | 0.0 | 0.0 | 0.00 | 0.09 | 0.00 | 91 | 1012.2 |
| 20260904101203 | 76 | 120 | 0.0 | 0.0 | 0.00 | 0.09 | 0.00 | 90 | 1012.2 |
| 20260904100703 | 76 | 120 | 0.0 | 0.0 | 0.00 | 0.09 | 0.00 | 90 | 1012.2 |
| 20260904100204 | 77 | 120 | 0.0 | 0.0 | 0.00 | 0.09 | 0.00 | 89 | 1012.1 |
| 20260904094704 | 77 | 120 | 0.0 | 0.0 | 0.00 | 0.09 | 0.00 | 88 | 1012.0 |
| 20260904094203 | 77 | 120 | 0.0 | 0.0 | 0.00 | 0.09 | 0.00 | 88 | 1012.0 |
| 20260904093203 | 78 | 120 | 0.0 | 0.0 | 0.00 | 0.09 | 0.00 | 88 | 1011.8 |
| 20260904092704 | 78 | 120 | 0.0 | 0.0 | 0.00 | 0.09 | 0.00 | 88 | 1011.8 |
| 20260904092204 | 78 | 120 | 0.0 | 0.0 | 0.00 | 0.09 | 0.00 | 89 | 1011.8 |
| 20260904091703 | 77 | 120 | 0.0 | 0.0 | 0.00 | 0.09 | 0.00 | 89 | 1011.8 |
| 20260904091203 | 77 | 120 | 0.0 | 0.0 | 0.00 | 0.09 | 0.00 | 89 | 1011.9 |
| 20260904090704 | 77 | 120 | 0.0 | 0.0 | 0.00 | 0.09 | 0.00 | 90 | 1011.8 |
| 20260904090203 | 77 | 120 | 0.0 | 0.0 | 0.00 | 0.09 | 0.00 | 91 | 1011.8 |
| 20260904085703 | 77 | 120 | 0.0 | 0.0 | 0.00 | 0.09 | 0.00 | 91 | 1011.7 |
| 20260904085204 | 77 | 120 | 0.0 | 0.0 | 0.00 | 0.09 | 0.00 | 92 | 1011.7 |
| 20260904084703 | 76 | 120 | 0.0 | 0.0 | 0.00 | 0.09 | 0.00 | 93 | 1011.6 |
| 20260904084203 | 76 | 120 | 0.0 | 0.0 | 0.00 | 0.09 | 0.00 | 92 | 1011.9 |
| 20260904083703 | 76 | 120 | 0.0 | 0.0 | 0.00 | 0.09 | 0.00 | 92 | 1012.2 |
| 20260904083203 | 76 | 120 | 0.0 | 0.0 | 0.00 | 0.09 | 0.00 | 92 | 1012.4 |
| 20260904082704 | 76 | 120 | 0.0 | 0.0 | 0.00 | 0.09 | 0.00 | 91 | 1012.7 |
| 20260904082203 | 76 | 120 | 0.0 | 0.0 | 0.00 | 0.09 | 0.00 | 91 | 1012.8 |
| 20260904081703 | 76 | 120 | 0.0 | 0.0 | 0.00 | 0.09 | 0.00 | 91 | 1012.9 |
| 20260904081203 | 76 | 120 | 0.0 | 0.0 | 0.00 | 0.09 | 0.00 | 90 | 1012.8 |
| 20260904080704 | 76 | 120 | 0.0 | 0.0 | 0.00 | 0.09 | 0.00 | 90 | 1012.7 |
| 20260904080204 | 76 | 120 | 0.0 | 0.0 | 0.00 | 0.09 | 0.00 | 90 | 1012.6 |
| 20260904075203 | 77 | 120 | 0.0 | 0.0 | 0.00 | 0.09 | 0.00 | 89 | 1012.6 |
| 20260904074704 | 77 | 120 | 0.0 | 0.0 | 0.00 | 0.09 | 0.00 | 88 | 1012.5 |
| 20260904074204 | 77 | 120 | 0.0 | 0.0 | 0.00 | 0.09 | 0.00 | 88 | 1012.3 |
| 20260904072704 | 77 | 120 | 0.0 | 0.0 | 0.00 | 0.09 | 0.00 | 88 | 1012.1 |
| 20260904072204 | 77 | 120 | 0.0 | 0.0 | 0.00 | 0.09 | 0.00 | 88 | 1012.2 |
| 20260904071703 | 77 | 120 | 0.0 | 0.0 | 0.00 | 0.09 | 0.00 | 88 | 1012.2 |
| 20260904071203 | 77 | 120 | 0.0 | 0.0 | 0.00 | 0.09 | 0.00 | 88 | 1012.1 |
| 20260904070204 | 77 | 120 | 0.0 | 0.0 | 0.00 | 0.09 | 0.00 | 88 | 1012.1 |
| 20260904065703 | 77 | 120 | 0.0 | 0.0 | 0.00 | 0.09 | 0.00 | 88 | 1012.0 |
| 20260904065203 | 77 | 120 | 0.0 | 0.0 | 0.00 | 0.09 | 0.00 | 88 | 1012.1 |
| 20260904064704 | 77 | 120 | 0.0 | 0.0 | 0.00 | 0.09 | 0.00 | 89 | 1012.0 |
| 20260904064204 | 77 | 120 | 0.0 | 0.0 | 0.00 | 0.09 | 0.00 | 89 | 1012.2 |
| 20260904063203 | 76 | 120 | 0.0 | 0.0 | 0.00 | 0.09 | 0.00 | 90 | 1012.4 |
| 20260904062704 | 76 | 120 | 0.0 | 0.0 | 0.00 | 0.09 | 0.00 | 90 | 1012.5 |
| 20260904062204 | 76 | 120 | 0.0 | 0.0 | 0.00 | 0.09 | 0.00 | 91 | 1012.6 |
| 20260904061703 | 76 | 120 | 0.0 | 0.0 | 0.00 | 0.09 | 0.00 | 91 | 1012.7 |
| 20260904061204 | 76 | 120 | 0.0 | 0.0 | 0.00 | 0.09 | 0.00 | 91 | 1012.7 |
| 20260904060704 | 76 | 120 | 0.0 | 0.0 | 0.00 | 0.09 | 0.00 | 91 | 1012.9 |
| 20260904060204 | 76 | 120 | 0.0 | 0.0 | 0.00 | 0.09 | 0.00 | 91 | 1013.0 |
| 20260904055704 | 76 | 120 | 0.0 | 0.0 | 0.00 | 0.09 | 0.00 | 91 | 1013.0 |
| 20260904054704 | 76 | 120 | 0.0 | 0.0 | 0.00 | 0.09 | 0.00 | 91 | 1013.3 |
| 20260904054204 | 75 | 120 | 0.0 | 0.0 | 0.00 | 0.09 | 0.00 | 91 | 1013.4 |
| 20260904053704 | 75 | 120 | 0.0 | 0.0 | 0.00 | 0.09 | 0.00 | 92 | 1013.4 |
| 20260904053203 | 75 | 120 | 0.0 | 0.0 | 0.00 | 0.09 | 0.00 | 90 | 1013.5 |
| 20260904052704 | 75 | 120 | 0.0 | 0.0 | 0.00 | 0.09 | 0.00 | 90 | 1013.5 |
| 20260904052204 | 76 | 120 | 0.0 | 0.0 | 0.00 | 0.09 | 0.00 | 91 | 1013.5 |
| 20260904051704 | 76 | 120 | 0.0 | 0.0 | 0.00 | 0.09 | 0.00 | 91 | 1013.5 |
| 20260904051203 | 76 | 120 | 0.0 | 0.0 | 0.00 | 0.09 | 0.00 | 91 | 1013.5 |
| 20260904050703 | 76 | 120 | 0.0 | 0.0 | 0.00 | 0.09 | 0.00 | 91 | 1013.4 |
| 20260904050204 | 76 | 120 | 0.0 | 0.0 | 0.00 | 0.09 | 0.00 | 91 | 1013.3 |
| 20260904045203 | 76 | 120 | 0.0 | 0.0 | 0.00 | 0.09 | 0.09 | 90 | 1013.4 |
| 20260904044704 | 76 | 120 | 0.0 | 0.0 | 0.00 | 0.09 | 0.09 | 90 | 1013.3 |
| 20260904044204 | 76 | 120 | 0.0 | 0.0 | 0.00 | 0.09 | 0.09 | 90 | 1013.3 |
| 20260904043704 | 76 | 120 | 0.0 | 0.0 | 0.00 | 0.09 | 0.09 | 90 | 1013.3 |
| 20260904043203 | 76 | 120 | 0.0 | 0.0 | 0.00 | 0.09 | 0.09 | 90 | 1013.4 |
| 20260904042204 | 76 | 120 | 0.0 | 0.0 | 0.00 | 0.09 | 0.09 | 89 | 1013.3 |
| 20260904041703 | 76 | 120 | 0.0 | 0.0 | 0.00 | 0.09 | 0.09 | 89 | 1013.3 |
| 20260904040704 | 76 | 120 | 0.0 | 0.0 | 0.00 | 0.09 | 0.09 | 89 | 1013.4 |
| 20260904035204 | 76 | 120 | 0.0 | 0.0 | 0.00 | 0.09 | 0.09 | 88 | 1013.6 |
| 20260904034703 | 76 | 120 | 0.0 | 0.0 | 0.00 | 0.09 | 0.09 | 88 | 1013.7 |
| 20260904034204 | 76 | 120 | 0.0 | 0.0 | 0.00 | 0.09 | 0.09 | 87 | 1013.8 |
| 20260904033204 | 76 | 120 | 0.0 | 0.0 | 0.00 | 0.09 | 0.09 | 86 | 1013.7 |
| 20260904032704 | 76 | 120 | 0.0 | 0.0 | 0.00 | 0.09 | 0.09 | 86 | 1013.7 |
| 20260904032204 | 76 | 120 | 0.0 | 0.0 | 0.00 | 0.09 | 0.09 | 86 | 1013.6 |
| 20260904031704 | 76 | 120 | 0.0 | 0.0 | 0.00 | 0.09 | 0.09 | 87 | 1013.7 |
| 20260904031204 | 76 | 120 | 0.0 | 0.0 | 0.00 | 0.09 | 0.09 | 87 | 1013.7 |
| 20260904030703 | 76 | 120 | 0.0 | 0.0 | 0.00 | 0.09 | 0.09 | 87 | 1013.7 |
| 20260904030204 | 76 | 120 | 0.0 | 0.0 | 0.00 | 0.09 | 0.09 | 86 | 1013.7 |